Flag for Poland Weather past 2 weeks in Ruda Śląska, Poland

Now
36 °F

Clear.


Feels Like: 36 °F
Forecast: 38 / 63 °F
Wind: 1 mph from North

Location: Katowice Airport


UV Index: 3 (Moderate)

Visibility: 10 mi


Pressure: 30.01 "Hg

Humidity: 93%

Dew point: 34 °F

Location of Ruda ŚląskaLocation

Historic Weather in Ruda Śląska

°F

Ruda Śląska temperature yesterday

Maximum temperature yesterday: 54 °F (at 3:00 PM)
Minimum temperature yesterday: 30 °F (at 12:30 AM)
Average temperature yesterday: 42 °F

Past Weeks' High & Low Weather Summary

 TemperatureHumidityPressure
High70 °F (Apr 8, 1:30 PM)100% (Apr 10, 5:00 AM)30.33 "Hg (Apr 10, 5:00 AM)
Low28 °F (Apr 13, 5:30 AM)33% (Apr 3, 3:00 PM)29.68 "Hg (Apr 3, 2:00 PM)
Average46 °F73%29.98 "Hg
* Reported Apr 2 10:00 PM — Apr 17 10:30 PM, Ruda Śląska, Weather by CustomWeather, © 2014

Note: Actual official high and low records may vary slightly from our data, if they occured in-between our weather recording intervals... More about our weather records

Advertising

Historic Weather Conditions — Data for Previous 24 hours

 ConditionsComfort  
Time TempWeatherWind HumidityBarometerVisibility
10:30 PM
Apr 17
37 °FPassing clouds.1 mph87%30.01 "HgN/A
10:00 PM39 °FClear.No wind81%30.04 "Hg10 mi
9:30 PM41 °FClear.2 mph76%30.04 "Hg10 mi
9:00 PM43 °FClear.1 mph76%30.04 "Hg10 mi
8:30 PM45 °FSunny.3 mph76%30.07 "Hg10 mi
8:00 PM50 °FSunny.3 mph50%30.07 "Hg10 mi
7:00 PM52 °FSunny.6 mph44%30.07 "Hg10 mi
6:30 PM52 °FPassing clouds.7 mph44%30.07 "HgN/A
6:00 PM50 °FSunny.7 mph50%30.09 "Hg10 mi
5:30 PM54 °FPassing clouds.5 mph44%30.09 "HgN/A
5:00 PM52 °FSunny.10 mph47%30.12 "Hg10 mi
4:30 PM54 °FPassing clouds.7 mph38%30.12 "HgN/A
4:00 PM54 °FPassing clouds.9 mph41%30.15 "HgN/A
3:30 PM54 °FPassing clouds.5 mph44%30.15 "HgN/A
3:00 PM54 °FPassing clouds.9 mph47%30.15 "HgN/A
2:30 PM52 °FScattered clouds.12 mph44%30.18 "HgN/A
2:00 PM52 °FScattered clouds.10 mph47%30.18 "HgN/A
1:30 PM52 °FScattered clouds.10 mph50%30.21 "HgN/A
1:00 PM50 °FScattered clouds.9 mph50%30.21 "HgN/A
12:30 PM50 °FScattered clouds.12 mph54%30.24 "HgN/A
12:00 PM50 °FScattered clouds.12 mph54%30.24 "HgN/A
11:30 AM50 °FScattered clouds.12 mph54%30.27 "HgN/A
11:00 AM48 °FScattered clouds.13 mph58%30.27 "HgN/A
10:30 AM46 °FScattered clouds.12 mph66%30.27 "HgN/A
10:00 AM46 °FPassing clouds.9 mph71%30.27 "HgN/A
9:30 AM45 °FSunny.8 mph76%30.27 "Hg10 mi
9:00 AM43 °FPassing clouds.7 mph76%30.30 "HgN/A
8:30 AM41 °FSunny.8 mph87%30.30 "Hg10 mi
8:00 AM37 °FSunny.5 mph87%30.30 "Hg10 mi
7:30 AM36 °FSunny.2 mph87%30.30 "Hg10 mi
7:00 AM32 °FSunny.No wind93%30.30 "Hg10 mi
6:30 AM30 °FClear.No wind100%30.30 "Hg10 mi
6:00 AM30 °FClear.1 mph100%30.30 "Hg10 mi
5:30 AM30 °FClear.2 mph100%30.30 "Hg10 mi
5:00 AM32 °FClear.2 mph93%30.30 "Hg10 mi
4:30 AM30 °FPassing clouds.No wind100%30.30 "HgN/A
4:00 AM32 °FPassing clouds.No wind100%30.30 "Hg4 mi
3:30 AM30 °FIce fog.6 mph100%30.33 "Hg3 mi
3:00 AM32 °FIce fog.3 mph100%30.33 "Hg3 mi
2:30 AM32 °FIce fog.3 mph100%30.33 "Hg3 mi
2:00 AM32 °FIce fog.5 mph100%30.33 "Hg1 mi
1:30 AM32 °FIce fog.5 mph100%30.33 "Hg1 mi
1:00 AM32 °FIce fog.2 mph100%30.33 "Hg2 mi
12:30 AM30 °FChilly.3 mph100%30.33 "Hg1 mi
12:00 AM34 °FFog.2 mph100%30.33 "Hg1 mi
Weather by CustomWeather, © 2014

See weather overview